Simultaneous Nadir Overpasses (SNOs) Predictions

Prediction of SNOs between GOES-16 and AQUA Satellite Orbit:

Table of predicted SNOs for the next 14.0 days since TLE Epoch: 1/11/2019
Index Date Time (GOES-16) GOES-16 Lat,Lon AQUA Lat,Lon Distance(km) Time Diff (sec)
1 01/12/2019 06:23:28 0.01, -75.20 -0.58, -72.38 320.57 80
2 01/12/2019 18:47:31 -0.02, -75.19 -0.55, -77.56 270.01 80
3 01/14/2019 18:32:40 -0.02, -75.20 0.10, -74.61 66.56 80
4 01/16/2019 18:20:29 -0.02, -75.20 0.74, -71.65 403.35 80
5 01/17/2019 06:44:24 0.02, -75.20 0.36, -76.81 182.24 80
6 01/19/2019 06:29:33 0.02, -75.21 -0.29, -73.85 154.74 80
7 01/19/2019 18:53:37 -0.03, -75.21 -0.85, -79.04 435.75 80
8 01/21/2019 06:17:21 0.02, -75.21 -0.89, -70.89 491.90 80
9 01/21/2019 18:41:26 -0.03, -75.21 -0.19, -76.08 98.46 80
10 01/23/2019 18:26:34 -0.02, -75.23 0.41, -73.12 239.52 80
11 01/24/2019 06:50:29 0.03, -75.24 0.70, -78.27 345.51 80




NCC Satellite Simultaneous Nadir Overpasses (SNOs) Prediction Service
